www.pogodaiklimat.ru

Погода и климат >> Архив погоды >> Чили >> Пудауэль


ПОГОДА в Пудауэле

  • Прогноз погоды в Пудауэле
  • Монитор погоды в Пудауэле

АРХИВ ПОГОДЫ в Пудауэле

Время (UTC), дата Ветер
(напр.,м/с)
 
Видим.   Явления Облачность Т
(С)
Тd
(С)
f
(%)
Тe
(С)
Тes
(С)
Комфортность P
(гПа)
Po
(гПа)
Тmin
(С)
Tmax
(С)
R
(мм)
R24
(мм)
S
(см)
06 13.06 Ю 4 10 км 9/9 600 м
[Sc As trans]
+9.9 +6.3 78 +7 +7 1018.8 962.4
09 13.06 ЮВ 4 8000 м слаб. дождь 10/3 600 м
[Sc As op]
+8.1 +7.5 96 +5 +5 1020.1 963.3
12 13.06 ЮВ 2 10 км слаб. дождь 10/4 900 м
[Frnb As op]
+7.8 +6.6 92 +6 +6 1020.8 963.9 +7.6 11
15 13.06 0 10 км в посл. час дождь 10/6 210 м
[Frnb As op]
+8.4 +7.3 93 1022.9 966.0
18 13.06 В 2 10 км слаб. дождь 10/4 300 м
[Frnb As op]
+9.0 +6.1 82 +8 +8 1023.0 966.2 2
21 13.06 СВ 3 8000 м слаб. дождь 10/3 450 м
[Frnb As op]
+8.5 +7.0 90 +6 +6 1023.1 966.2
00 14.06 Ю 3 10 км {дождь} 9/3 1200 м
[Cu hum Ac trans]
+8.3 +7.1 92 +6 +6 1023.7 966.7 +9.3 6
03 14.06 СВ 2 1500 м местами туман поземный 3/0
[Ac trans]
+5.8 +5.8 100 +3 +3 1023.2 965.8
06 14.06 С 2 400 м туман 9/0
[]
+3.8 +3.8 100 +1 +1 1022.7 964.9
09 14.06 С 4 400 м туман 9/0
[]
+5.3 +5.3 100 +1 +1 1021.2 963.8
12 14.06 Ю 2 400 м туман 9/0
[]
+4.0 +4.0 100 +1 +1 1021.2 963.5 +3.4
15 14.06 З 2 800 м местами туман поземный 9/4 60 м
[Sc]
+5.7 +5.7 100 +3 +5 1021.4 964.1
18 14.06 ЮЗ 8 10 км 8/3 450 м
[Cu Sc]
+9.8 +7.1 83 +6 +6 1019.0 962.6
21 14.06 Ю 6 10 км 9/3 600 м
[Cu Sc]
+9.2 +5.2 76 +6 +6 1019.5 963.0
00 15.06 ЮВ 4 10 км слаб. ливневой дождь 9/6 600 м
[Cu Sc]
+8.2 +3.9 74 +5 +5 1020.7 963.9 +12.8 0.1
03 15.06 З 3 10 км слаб. дождь 10/5 900 м
[Sc As op]
+6.7 +5.3 91 +4 +4 1020.9 963.8
06 15.06 С 2 10 км ливневой дождь 10/10 900 м
[Cu Sc]
+6.3 +5.3 93 +4 +4 1021.0 963.8 1
09 15.06 СВ 3 5000 м дымка {ливн. осадки, дождь} 10/6 900 м
[Cu Sc As op]
+6.3 +5.6 95 +3 +3 1021.2 964.0
12 15.06 штиль 0 3000 м дымка {ливн. осадки} 9/5 1500 м
[Cu med, cong Ac As]
+6.0 +5.3 95 +5 +5 1023.1 965.7 +5.9 0.6
15 15.06 0 10 км {туман} 5/4 360 м
[Cu med, cong Ac trans]
+8.3 +5.6 83 1023.1 966.2
18 15.06 З 2 10 км 3/3 600 м
[Cu med, cong]
+12.0 +4.5 60 +12 +16 1020.1 964.1
21 15.06 0 10 км 3/3 900 м
[Cu med, cong Ac trans]
+12.9 +1.0 44 1019.2 963.4
00 16.06 ЮЗ 3 10 км 6/1 1200 м
[Cu med, cong Ac trans Ci fib]
+9.8 +4.0 67 +8 +8 1020.9 964.4 +13.9
03 16.06 ЮВ 3 10 км 5/0
[Ac trans]
+8.5 +4.3 75 +6 +6 1021.6 964.8
06 16.06 СВ 2 8000 м мгла 8/0
[Ac und]
+5.9 +3.9 87 +3 +3 1021.7 964.4
09 16.06 СВ 2 6000 м дымка ясно +2.7 +1.7 93 0 0 1021.9 964.0
12 16.06 штиль 0 5000 м дымка ясно +1.2 +0.9 98 -0 -0 1022.4 964.1 +1.2
15 16.06 0 8000 м мгла ясно +8.0 +4.0 76 1021.4 964.5
18 16.06 0 10 км 4/0
[Ci fib]
+13.0 +2.6 49 1017.6 961.9
21 16.06 ЮВ 2 10 км ясно +13.4 +2.1 46 +13 +13 1016.9 961.3
00 17.06 ЮЗ 2 10 км ясно +9.2 +4.2 71 +8 +8 1017.0 961.3 +13.9
03 17.06 ЮВ 1 10 км ясно +6.1 +3.6 84 +6 +6 1018.3 961.2
06 17.06 штиль 0 3000 м дымка ясно +2.4 +1.7 95 +1 +1 1020.0 962.1
09 17.06 0 4000 м дымка 8/0
[Ci]
+1.9 +1.2 95 1020.5 962.5
12 17.06 З 3 4000 м дымка 8/0
[Ci fib]
+1.9 +1.2 95 -3 -3 1021.4 963.3 +0.7
15 17.06 0 5000 м мгла 8/0
[Ac trans Cs]
+5.4 +2.9 84 1021.7 964.3
18 17.06 СВ 2 8000 м мгла 10/0 2000 м
[Ac As]
+9.2 +3.8 69 +8 +10 1020.4 963.8
21 17.06 В 2 8000 м мгла 10/5 1500 м
[Cu med, cong Ac As]
+10.0 +3.5 64 +9 +9 1021.4 964.9
00 18.06 ЮВ 4 10 км слаб. ливневой дождь 10/6 900 м
[Cu Sc Ac trans]
+8.4 +5.3 81 +5 +5 1024.1 967.2 +10.3 0.2
03 18.06 Ю 4 10 км 10/6 1500 м
[Sc Ac trans]
+7.8 +5.3 84 +5 +5 1026.6 969.4
06 18.06 штиль 0 10 км ясно +3.9 +3.2 95 +3 +3 1028.0 970.0 0.3
09 18.06 СВ 2 6000 м мгла ясно +3.8 +3.2 96 +1 +1 1027.3 969.3
12 18.06 0 800 м местами туман поземный ясно +1.9 +1.6 98 1028.2 969.7 +0.3
15 18.06 СЗ 2 7000 м мгла ясно +6.5 +4.0 84 +5 +10 1027.3 969.6
18 18.06 0 10 км ясно +13.0 +2.6 49 1023.6 967.6
21 18.06 ЮВ 2 10 км ясно +14.4 +0.7 39 +14 +15 1021.9 966.2
00 19.06 0 10 км ясно +7.4 +3.3 75 1023.0 965.9 +14.9
03 19.06 0 8000 м мгла ясно +4.6 +2.1 84 1023.6 965.9
06 19.06 штиль 0 8000 м мгла ясно +2.5 +0.2 85 +1 +1 1023.5 965.4
09 19.06 СЗ 2 7000 м мгла 5/0
[Ci fib]
+0.5 -1.1 89 -2 -2 1020.9 962.5
12 19.06 СЗ 3 7000 м мгла 9/0
[Cs]
+0.4 -1.4 88 -4 -4 1020.6 962.2 -0.7
15 19.06 З 2 7000 м мгла 9/0
[Ac trans Cs]
+7.2 +1.3 66 +6 +9 1018.7 961.8
18 19.06 штиль 0 8000 м мгла 8/0
[Ci]
+15.2 +0.7 37 +15 +22 1014.0 958.9
21 19.06 СВ 2 10 км 6/0
[Ci fib]
+16.8 +2.1 37 +17 +17 1012.0 957.3
00 20.06 штиль 0 10 км 6/0
[Ci fib]
+11.1 +3.9 61 +11 +11 1012.9 957.1 +18.7
03 20.06 штиль 0 8000 м дым 8/0
[Cs]
+7.8 +4.2 78 +7 +7 1012.8 956.4

 

Местоположение метеостанции Пудауэль (Чили): широта -33.38 долгота -70.78 высота над уровнем моря 474 м.

В архиве по умолчанию представлена погода в Пудауэле за последнюю неделю. Архивные данные за месяц целиком и за предыдущие месяцы, начиная с января 2011 года, Вы можете получить, выбрав интересующий диапазон дат из раскрывающегося списка и нажав кнопку "Ввод!".


*Определитесь, кто Вы:
робот инопланетянин человек

Внимание! Время в таблицах - всемирное. Для получения местного времени необходимо прибавить поправку, которая равна -4 ч.

Смотрите также архив погоды в соседних городах и на ближайших метеорологических станциях:

Погода в Сантьяго (Чили) (11 км)
Погода в Ло-Пинто (Чили) (13 км)
Погода в Ло-Прадо (Чили) (18 км)
Погода в Сантьяго Агуас Андинас (Чили) (29 км)
Погода в Талаганте (Чили) (33 км)
Погода в Куракави (Чили) (36 км)
Погода в Эль Пайко (Чили) (42 км)
Погода в Мария-Пинто (Чили) (45 км)
Погода в Сан-Хосе-де-Майпо (Чили) (48 км)
Погода в Льяй Льяй (Чили) (57 км)

Пояснения к столбцам:

Ветер - указаны скорость ветра в м/с - средняя за 10 мин, порывы в срок и между сроками (в фигурных скобках) и направление, откуда дует ветер: С - северный, СВ - северо-восточный, В - восточный, ЮВ - юго-восточный, Ю - южный, ЮЗ - юго-западный, З - западный, СЗ - северо-западный.
Видимость - горизонтальная дальность видимости в метрах или километрах. При видимости от 1 до 10 км при отсутствии осадков обычно наблюдается дымка, при ухудшении видимости до 1 км и менее - туман. В сухую погоду видимость может ухудшаться дымом, пылью или мглою.
Явления - указаны атмосферные явления, наблюдавшиеся в срок или в последний час перед сроком; фигурными скобками обозначены явления, наблюдавшиеся между сроками (за 1-3 часа до срока); квадратными скобками обозначены град или гололедные отложения с указанием их диаметра в мм.
Облачность - указаны через наклонную черту общая и нижняя облачность в баллах и высота нижней границы облаков в метрах; квадратными скобками обозначены формы облаков: Ci - перистые, Cs - перисто-слоистые, Cc - перисто-кучевые, Ac - высококучевые, As - высокослоистые, Sc - слоисто-кучевые, Ns - слоисто-дождевые, Cu - кучевые, Cb - кучево-дождевые. Подробнее классификацию облаков см. в Атласе облаков (PDF).
T - Температура воздуха - температура, измеренная на высоте 2 м над землей.
Td - Температура точки росы - температура, при понижении до которой содержащийся в воздухе водяной пар достигнет насыщения.
f - Относительная влажность воздуха - влажноcть воздуха, измеренная на высоте 2 м над землей.
Te - Эффективная температура - температура, которую ощущает одетый по сезону человек в тени. Характеристика душности погоды. При расчете учитывается влияние влажности воздуха и скорости ветра на теплоощущения человека.
Tes - Эффективная температура на солнце - температура, которую ощущает человек, с поправкой на солнечный нагрев. Характеристика знойности погоды. Зависит от высоты солнца над горизонтом, облачности и скорости ветра. Ночью, в пасмурную погоду, а также при ветре 12 м/с и более поправка равна нулю.
P - Атмосферное давление - приведенное к уровню моря атмосферное давление.
Po - Атмосферное давление - измеренное на уровне метеостанции атмосферное давление.
Tmin - Минимальная температура - минимум температуры воздуха на высоте 2 м над землей.
Tmax - Максимальная температура - максимум температуры воздуха на высоте 2 м над землей.
R - Количество осадков - Количество выпавших осадков за период времени, мм. При наведении курсора мыши на число - период времени, за который выпало указанное количество осадков.
R24 - Количество осадков - Количество выпавших осадков за 24 часа, мм.
S - Снежный покров - Высота снежного покрова, см. При наведении курсора мыши на число - состояние снежного покрова и степень покрытия местности в баллах.